This is the latest recevied weather packets stored in our database for station/object N5XJB. If no packets are shown the sender has not sent any weather packets the latest 1 day(s).
| Time | Temp. | Humidity | Pressure | Rain* | Wind** | Luminosity | Snow |
|---|---|---|---|---|---|---|---|
| 1777995485 | 25.56° C | 85% | 1010.4 hPa | 0 mm | 0.89 m/s, 120° | 146 W/m² | - |
| 1777995182 | 25.56° C | 85% | 1010.4 hPa | 0 mm | 0.89 m/s, 89° | 175 W/m² | - |
| 1777994879 | 25.56° C | 85% | 1010.4 hPa | 0 mm | 0 m/s | 113 W/m² | - |
| 1777994575 | 25.56° C | 85% | 1010.4 hPa | 0 mm | 0.89 m/s, 174° | 131 W/m² | - |
| 1777994270 | 25.56° C | 85% | 1010.4 hPa | 0 mm | 0.89 m/s, 133° | 120 W/m² | - |
| 1777993968 | 25.56° C | 86% | 1010.4 hPa | 0 mm | 0.89 m/s, 162° | 110 W/m² | - |
| 1777993664 | 25.56° C | 86% | 1010.4 hPa | 0 mm | 0 m/s | 111 W/m² | - |
| 1777993361 | 25.56° C | 85% | 1010.4 hPa | 0 mm | 0 m/s | 70 W/m² | - |
| 1777993056 | 25.56° C | 85% | 1010.4 hPa | 0 mm | 0.89 m/s, 301° | 115 W/m² | - |
| 1777992754 | 25.56° C | 85% | 1010.7 hPa | 0 mm | 0.89 m/s, 320° | 121 W/m² | - |
| 1777992452 | 25.56° C | 85% | 1010 hPa | 0 mm | 0.89 m/s, 201° | 119 W/m² | - |
| 1777992150 | 25.56° C | 85% | 1010 hPa | 0 mm | 0.45 m/s, 162° | 128 W/m² | - |
| 1777991847 | 25.56° C | 85% | 1010 hPa | 0 mm | 0.89 m/s, 286° | 172 W/m² | - |
| 1777991544 | 25.56° C | 86% | 1010 hPa | 0 mm | 0.89 m/s, 311° | 164 W/m² | - |
| 1777991241 | 25.56° C | 86% | 1010 hPa | 0 mm | 0.89 m/s, 12° | 173 W/m² | - |
| 1777990938 | 25.56° C | 86% | 1010.4 hPa | 0 mm | 0 m/s | 145 W/m² | - |
| 1777990636 | 25° C | 87% | 1010 hPa | 0 mm | 0.45 m/s, 275° | 138 W/m² | - |
| 1777990333 | 25° C | 87% | 1010 hPa | 0 mm | 0.45 m/s, 275° | 138 W/m² | - |
| 1777990029 | 25° C | 87% | 1010 hPa | 0 mm | 0.45 m/s, 186° | 142 W/m² | - |
| 1777989726 | 25° C | 87% | 1009.7 hPa | 0 mm | 0.45 m/s, 162° | 133 W/m² | - |
| 1777989422 | 25° C | 87% | 1010 hPa | 0 mm | 0.89 m/s, 180° | 156 W/m² | - |
| 1777989119 | 24.44° C | 88% | 1010.4 hPa | 0 mm | 0.89 m/s, 95° | 144 W/m² | - |
| 1777988814 | 24.44° C | 88% | 1010 hPa | 0 mm | 0 m/s | 153 W/m² | - |
| 1777988512 | 24.44° C | 89% | 1010.4 hPa | 0 mm | 0 m/s | 121 W/m² | - |
| 1777988209 | 24.44° C | 89% | 1010.4 hPa | 0 mm | 0.89 m/s, 130° | 88 W/m² | - |
* Rain latest hour (hover to see other rain measurements)
** Current wind speed in m/s (hover to see current wind gust speed)